Regional Weather Roundup
Issued by NWS

Home | Current Version | Previous Version | Graphics & Text | Print | Product List | Glossary On
Versions: 1 2 3 4 5 6 7 8 9 10 11 12 13 14 15 16 17 18 19 20 21 22 23 24 25 26 27 28 29 30 31 32 33 34 35 36 37 38 39 40 41 42 43 44 45 46 47 48 49 50
000
ASUS43 KOAX 110402
RWRNE

WEATHER ROUNDUP FOR NEBRASKA
NATIONAL WEATHER SERVICE OMAHA NE
1000 PM CST SUN DEC 10 2017

NOTES: SATELLITE DATA IS BEING USED TO AUGMENT CLOUD COVER ABOVE
       12000 FEET.
       "FAIR" INDICATES FEW OR NO CLOUDS BELOW 12,000 FEET WITH NO
       SIGNIFICANT WEATHER AND/OR OBSTRUCTIONS TO VISIBILITY.


NEZ001>004-019>022-054>056-110500-
NEBRASKA PANHANDLE

CITY           SKY/WX    TMP DP  RH WIND       PRES   REMARKS
SCOTTSBLUFF    CLOUDY    36   9  32 W13       30.26F WCI  27
ALLIANCE       CLOUDY    26  10  50 W13       30.21F WCI  15
CHADRON        MOCLDY    45  14  28 W8        30.19F
GORDON         FAIR      42  18  38 W15       30.16F
KIMBALL        CLOUDY    39   6  25 W20       30.28F WCI  29
SIDNEY         CLOUDY    39   7  26 W14       30.27S WCI  31
$$

NEZ057>060-069>072-079>082-110500-
SOUTHWEST NEBRASKA

CITY           SKY/WX    TMP DP  RH WIND       PRES   REMARKS
NORTH PLATTE   CLOUDY    29  15  56 NW7       30.17F WCI  22
IMPERIAL       CLEAR     37   4  25 W10       30.22F WCI  30
LEXINGTON      CLOUDY    32  14  47 W8        30.14F WCI  25
MCCOOK         CLOUDY    38   9  30 W7        30.19F WCI  33
OGALLALA       CLEAR     47   9  21 NW15      30.20F
$$

NEZ005>010-023>029-035>040-094-110500-
NORTH CENTRAL NEBRASKA

CITY           SKY/WX    TMP DP  RH WIND       PRES   REMARKS
VALENTINE      CLEAR     38  18  44 W10       30.10S WCI  31
AINSWORTH      CLOUDY    41  18  40 W13       30.08F
BROKEN BOW     CLOUDY    37  12  35 W8        30.11F WCI  31
O`NEILL        CLOUDY    41  20  43 W8        30.04F
ORD            CLOUDY    36  13  38 NW6       30.08F WCI  31
THEDFORD       CLOUDY    37  12  36 W8        30.14F WCI  30
$$

NEZ041-046>049-061>064-073>077-083>087-110500-
SOUTH CENTRAL NEBRASKA

CITY           SKY/WX    TMP DP  RH WIND       PRES   REMARKS
GRAND ISLAND   CLEAR     39  15  37 W10       30.10F WCI  32
AURORA         CLEAR     37  14  39 W12       30.09F WCI  29
HASTINGS       CLEAR     39  13  34 W7        30.11F WCI  34
HEBRON         CLEAR     34  16  48 CALM      30.12S
HOLDREGE       CLEAR     41  14  32 W10       30.14F
KEARNEY        CLEAR     45  12  26 W10       30.13F
YORK           CLEAR     37  16  41 W10       30.09F WCI  30
$$

NEZ011>018-030>034-042>045-110500-
NORTHEAST NEBRASKA

CITY           SKY/WX    TMP DP  RH WIND       PRES   REMARKS
NORFOLK        CLOUDY    38  20  48 SW6       30.02F WCI  33
ALBION         CLOUDY    42  16  34 NW7       30.06F
BLAIR          CLOUDY    36  24  62 S6        30.05F WCI  31
COLUMBUS       CLOUDY    33  19  56 W3        30.06F
FREMONT        CLOUDY    31  23  70 CALM      30.06F
TEKAMAH        CLOUDY    25  13  60 S7        30.05F WCI  17
WAYNE          PTCLDY    29  20  70 S3        30.03F
$$

NEZ050>053-065>068-078-088>093-110500-
SOUTHEAST NEBRASKA

CITY           SKY/WX    TMP DP  RH WIND       PRES   REMARKS
LINCOLN        CLEAR     32  18  56 CALM      30.08F
OMAHA EPPLEY   CLOUDY    31  24  75 SE6       30.06F WCI  25
BEATRICE       CLOUDY    29  17  62 CALM      30.09F
FALLS CITY     CLEAR     31  20  63 NE3       30.10F
NEBRASKA CITY  CLEAR     38  22  53 SW9       30.08F WCI  31
PLATTSMOUTH    CLOUDY    41  21  44 SW8       30.07F
$$

NEZ044-045-051>053-067-110500-
OMAHA AREA

CITY           SKY/WX    TMP DP  RH WIND       PRES   REMARKS
OMAHA EPPLEY   CLOUDY    31  24  75 SE6       30.06F WCI  25
BLAIR          CLOUDY    36  24  62 S6        30.05F WCI  31
FREMONT        CLOUDY    31  23  70 CALM      30.06F
MILLARD        CLOUDY    32  25  76 CALM      30.07F
OFFUTT AFB     CLOUDY    24  20  82 CALM      30.06F
PLATTSMOUTH    CLOUDY    41  21  44 SW8       30.07F
WAHOO          FAIR      39  19  43 CALM      30.06F
$$




USA.gov is the U.S. government's official web portal to all federal, state and local government web resources and services.